Moose, Wyoming, United States (83012)
Lat: 43.66N, Lon: 110.72W
Wx Zone: WYZ013
Local Info
Past Weather Observations for Monday, October 20, 2014

NOTE: This archive is for the closest National Weather Service station to Moose. Information may differ from the station used for current weather conditions.

Click here for Long-term Archive

Time Weather Temperature Dewpoint Humidity Pressure Winds Precip Visibility
23:55
Partly Cloudy
36°F / 2°C 30°F / -1°C 81% 30.01 in
(1016 mb)
N 4.6 mph
(N 7 kph)
- 10SM
23:35
Partly Cloudy
34°F / 1°C 30°F / -1°C 87% 30.01 in
(1016 mb)
N 5.8 mph
(N 9 kph)
- 10SM
23:15
Clear
36°F / 2°C 30°F / -1°C 81% 30.04 in
(1017 mb)
N 5.8 mph
(N 9 kph)
- 10SM
22:55
Clear
36°F / 2°C 30°F / -1°C 81% 30.04 in
(1017 mb)
N 8.1 mph
(N 13 kph)
- 10SM
22:35
Clear
37°F / 3°C 30°F / -1°C 75% 30.04 in
(1017 mb)
N 8.1 mph
(N 13 kph)
- 10SM
22:15
Clear
37°F / 3°C 30°F / -1°C 75% 30.04 in
(1017 mb)
N 6.9 mph
(N 11 kph)
- 10SM
21:55
Clear
36°F / 2°C 30°F / -1°C 81% 30.04 in
(1017 mb)
N 9.2 mph
(N 15 kph)
- 10SM
21:35
Clear
37°F / 3°C 30°F / -1°C 75% 30.04 in
(1017 mb)
N 8.1 mph
(N 13 kph)
- 10SM
21:15
Clear
39°F / 4°C 30°F / -1°C 70% 30.04 in
(1017 mb)
NE 3.5 mph
(NE 6 kph)
- 10SM
20:55
Clear
37°F / 3°C 30°F / -1°C 75% 30.04 in
(1017 mb)
N 9.2 mph
(N 15 kph)
- 10SM
20:35
Clear
39°F / 4°C 30°F / -1°C 70% 30.04 in
(1017 mb)
N 8.1 mph
(N 13 kph)
- 10SM
20:15
Clear
39°F / 4°C 30°F / -1°C 70% 30.04 in
(1017 mb)
NE 6.9 mph
(NE 11 kph)
- 10SM
19:55
Clear
39°F / 4°C 30°F / -1°C 70% 30.04 in
(1017 mb)
N 5.8 mph
(N 9 kph)
- 10SM
18:53
Clear
48°F / 9°C 28°F / -2°C 46% 30.04 in
(1017 mb)
Calm - 10SM
17:52
Clear
57°F / 14°C 30°F / -1°C 36% 30.04 in
(1017 mb)
Calm - 10SM
16:59
Partly Cloudy
61°F / 16°C 30°F / -1°C 31% 30.04 in
(1017 mb)
S 4.6 mph
(S 7 kph)
- 10SM
15:50
Partly Cloudy
66°F / 19°C 30°F / -1°C 26% 30.06 in
(1018 mb)
S 8.1 mph
(S 13 kph)
- 10SM
14:51
Clear
68°F / 20°C 28°F / -2°C 23% 30.06 in
(1018 mb)
S 6.9 mph
(S 11 kph)
- 10SM
13:51
Clear
66°F / 19°C 30°F / -1°C 26% 30.09 in
(1019 mb)
S 6.9 mph
(S 11 kph)
- 10SM
12:52
Clear
61°F / 16°C 28°F / -2°C 29% 30.09 in
(1019 mb)
Calm - 10SM
11:52
Clear
55°F / 13°C 27°F / -3°C 33% 30.15 in
(1021 mb)
Calm - 10SM
10:51
Clear
48°F / 9°C 25°F / -4°C 40% 30.18 in
(1022 mb)
SSE 3.5 mph
(SSE 6 kph)
- 10SM
09:51
Clear
43°F / 6°C 27°F / -3°C 53% 30.21 in
(1023 mb)
Calm - 10SM
08:51
Clear
37°F / 3°C 25°F / -4°C 60% 30.21 in
(1023 mb)
Calm - 10SM
07:52
Clear
30°F / -1°C 27°F / -3°C 86% 30.21 in
(1023 mb)
Variable 4.6 mph
(Variable 7 kph)
- 10SM
06:52
Clear
27°F / -3°C 23°F / -5°C 86% 30.21 in
(1023 mb)
Variable 6.9 mph
(Variable 11 kph)
- 10SM
05:52
Clear
25°F / -4°C 23°F / -5°C 93% 30.21 in
(1023 mb)
Variable 6.9 mph
(Variable 11 kph)
- 10SM
05:35
Clear
27°F / -3°C 23°F / -5°C 86% 30.18 in
(1022 mb)
N 5.8 mph
(N 9 kph)
- 10SM
05:15
Clear
25°F / -4°C 23°F / -5°C 93% 30.18 in
(1022 mb)
NNE 4.6 mph
(NNE 7 kph)
- 10SM
04:55
Clear
27°F / -3°C 23°F / -5°C 86% 30.18 in
(1022 mb)
N 8.1 mph
(N 13 kph)
- 10SM
04:35
Clear
25°F / -4°C 23°F / -5°C 93% 30.18 in
(1022 mb)
N 8.1 mph
(N 13 kph)
- 10SM
04:15
Clear
25°F / -4°C 21°F / -6°C 86% 30.18 in
(1022 mb)
N 6.9 mph
(N 11 kph)
- 10SM
03:55
Clear
27°F / -3°C 23°F / -5°C 86% 30.18 in
(1022 mb)
N 4.6 mph
(N 7 kph)
- 10SM
03:35
Clear
30°F / -1°C 25°F / -4°C 80% 30.18 in
(1022 mb)
N 4.6 mph
(N 7 kph)
- 10SM
03:15
Clear
27°F / -3°C 25°F / -4°C 93% 30.18 in
(1022 mb)
N 5.8 mph
(N 9 kph)
- 10SM
02:55
Clear
28°F / -2°C 25°F / -4°C 86% 30.18 in
(1022 mb)
N 5.8 mph
(N 9 kph)
- 10SM
02:35
Clear
28°F / -2°C 25°F / -4°C 86% 30.18 in
(1022 mb)
NNE 5.8 mph
(NNE 9 kph)
- 10SM
02:15
Clear
28°F / -2°C 25°F / -4°C 86% 30.21 in
(1023 mb)
NE 4.6 mph
(NE 7 kph)
- 10SM
01:55
Clear
30°F / -1°C 25°F / -4°C 80% 30.18 in
(1022 mb)
N 6.9 mph
(N 11 kph)
- 10SM
01:35
Clear
28°F / -2°C 25°F / -4°C 86% 30.18 in
(1022 mb)
N 6.9 mph
(N 11 kph)
- 10SM
01:15
Clear
28°F / -2°C 25°F / -4°C 86% 30.18 in
(1022 mb)
NNE 3.5 mph
(NNE 6 kph)
- 10SM
00:55
Clear
30°F / -1°C 25°F / -4°C 80% 30.18 in
(1022 mb)
NE 4.6 mph
(NE 7 kph)
- 10SM
00:35
Clear
34°F / 1°C 25°F / -4°C 70% 30.18 in
(1022 mb)
N 5.8 mph
(N 9 kph)
- 10SM
00:15
Clear
34°F / 1°C 25°F / -4°C 70% 30.18 in
(1022 mb)
NNE 4.6 mph
(NNE 7 kph)
- 10SM
Time Weather Temperature Dewpoint Humidity Pressure Winds Precip Visibility


Weather for websites

WeatherForYou.com, LLC is not responsible for any damages or problems caused by this service. Current weather conditions are obtained from the closest station including government and personal stations which may have varying degrees of accuracy. Weather forecasts are derived from the NOAA NDFD. Like all things, this site belongs to Jesus Christ... He just trusts me to maintain it. If you have any questions or comments email webmaster@weatherforyou.com

Copyright © 2014, WeatherForYou.com LLC. All rights reserved.